User: anonymous   Login
Location: Unspecified
(0.0000°N, 0.0000°E)
Time: 06:18:35
(UTC+00:00)
Language:

ANDE - Orbit

View from above orbital plane
View from above orbital plane
View from above satellite
View from above satellite

Ground track
Ground track

The orbit data is extracted from the following two-line orbital elements,

1 29664U 06055F   07359.16654419  .14620719  12705-4  12723-3 0  9990
2 29664 051.6179 150.0690 0003189 248.8461 111.8136 16.51627846 58777
Epoch (UTC): 25 December 2007 03:59:49
Eccentricity: 0.0003189
inclination: 51.6179°
perigee height: 133 km
apogee height: 137 km
right ascension of ascending node: 150.0690°
argument of perigee: 248.8461°
revolutions per day: 16.51627846
mean anomaly at epoch: 111.8136°
orbit number at epoch: 5877

The dashed part of the orbit path shows where the satellite is in the earth's shadow,  

DLR